John F Kennedy International Airport


Codes: KJFK/JFK
Name: John F Kennedy International Airport
City: New York
Country: United States
Elevation: 13 ft.
Website:
Wikipedia:

Photos at John F Kennedy International Airport


   Photos courtesy of SpottingLog. You can add your own sightings and photos by signing up for a free trial today.



A6-EEF, 04-Nov-2023
© Evelyn Foley

A6-EVQ, 13-Sep-2023
© Conor Clancy

9H-SZN, 13-Sep-2023
© Conor Clancy

N103HQ, 13-Sep-2023
© Conor Clancy

N368JB, 13-Sep-2023
© Conor Clancy

N2029J, 13-Sep-2023
© Conor Clancy

N807JB, 13-Sep-2023
© Conor Clancy

N321AA, 01-Sep-2010
© Conor Clancy

N312AA, 01-Sep-2010
© Conor Clancy

HZ-AKC, 01-Sep-2010
© Conor Clancy

B-16463, 01-Sep-2010
© Conor Clancy

A6-ECP, 01-Sep-2010
© Conor Clancy


Weather at John F Kennedy International Airport


Time (UTC)DescriptionTempratureWindCloud coverageVisibilityPressureHumidity
21-Feb-2024 03:00Few Clouds-0°C7 mph, SE20%10000m1032hPa58%
21-Feb-2024 06:00Few Clouds0°C4 mph, E15%10000m1032hPa56%
21-Feb-2024 09:00Scattered Clouds0°C7 mph, E45%10000m1032hPa54%
21-Feb-2024 12:00Broken Clouds1°C7 mph, E66%10000m1032hPa58%
21-Feb-2024 15:00Broken Clouds3°C9 mph, E79%10000m1032hPa63%
21-Feb-2024 18:00Overcast Clouds4°C11 mph, SE85%10000m1030hPa57%
21-Feb-2024 21:00Broken Clouds4°C9 mph, SE73%10000m1028hPa58%
22-Feb-2024 00:00Scattered Clouds3°C9 mph, SE48%10000m1027hPa64%
22-Feb-2024 03:00Few Clouds2°C7 mph, E13%10000m1026hPa68%
22-Feb-2024 06:00Few Clouds2°C7 mph, E13%10000m1024hPa72%
22-Feb-2024 09:00Clear Sky1°C4 mph, E8%10000m1022hPa75%
22-Feb-2024 12:00Clear Sky1°C4 mph, E10%10000m1021hPa73%
22-Feb-2024 15:00Scattered Clouds3°C4 mph, SE47%10000m1019hPa65%
22-Feb-2024 18:00Scattered Clouds4°C7 mph, S40%10000m1015hPa63%
22-Feb-2024 21:00Broken Clouds4°C9 mph, SE61%10000m1012hPa66%
23-Feb-2024 00:00Broken Clouds4°C13 mph, S80%10000m1009hPa73%
23-Feb-2024 03:00Light Rain4°C13 mph, S99%10000m1007hPa82%
23-Feb-2024 06:00Light Rain5°C16 mph, SE100%10000m1003hPa84%
23-Feb-2024 09:00Light Rain6°C13 mph, S100%10000m999hPa93%
23-Feb-2024 12:00Light Rain6°C11 mph, S100%10000m997hPa97%
23-Feb-2024 15:00Light Rain6°C7 mph, SW100%10000m997hPa97%
23-Feb-2024 18:00Light Rain6°C7 mph, NW100%10000m996hPa95%
23-Feb-2024 21:00Light Rain7°C11 mph, NW100%10000m997hPa81%
24-Feb-2024 00:00Overcast Clouds6°C16 mph, NW100%10000m999hPa71%
24-Feb-2024 03:00Broken Clouds5°C16 mph, NW68%10000m1001hPa67%
24-Feb-2024 06:00Scattered Clouds4°C13 mph, NW38%10000m1002hPa67%
24-Feb-2024 09:00Clear Sky2°C18 mph, NW6%10000m1003hPa65%
24-Feb-2024 12:00Clear Sky0°C18 mph, NW5%10000m1006hPa57%
24-Feb-2024 15:00Few Clouds-0°C18 mph, NW14%10000m1010hPa47%
24-Feb-2024 18:00Scattered Clouds1°C16 mph, NW27%10000m1011hPa38%
24-Feb-2024 21:00Scattered Clouds2°C18 mph, NW35%10000m1012hPa36%
25-Feb-2024 00:00Few Clouds0°C16 mph, NW20%10000m1017hPa41%
25-Feb-2024 03:00Clear Sky-1°C13 mph, NW0%10000m1019hPa42%
25-Feb-2024 06:00Clear Sky-2°C9 mph, NW0%10000m1021hPa41%
25-Feb-2024 09:00Clear Sky-2°C7 mph, NW0%10000m1022hPa41%
25-Feb-2024 12:00Clear Sky-1°C4 mph, W0%10000m1023hPa41%
25-Feb-2024 15:00Clear Sky1°C9 mph, SW4%10000m1023hPa42%
25-Feb-2024 18:00Scattered Clouds3°C11 mph, S29%10000m1021hPa42%
25-Feb-2024 21:00Overcast Clouds4°C18 mph, S99%10000m1020hPa52%
26-Feb-2024 00:00Broken Clouds4°C18 mph, S76%10000m1020hPa62%